Weather History for KGSH - October, 2014

Change the Weather History Date:

Tuesday, October 21, 2014

  Actual Average Record
Temperature  
Mean Temperature 47 °F -  
Max Temperature 52 °F 59 °F 86 °F (1953)
Min Temperature 37 °F 40 °F 18 °F (1952)
Degree Days  
Heating Degree Days 18    
Moisture  
Dew Point 41 °F    
Average Humidity 76    
Maximum Humidity 93    
Minimum Humidity 68    
Precipitation  
Precipitation 0.00 in - - ()
Sea Level Pressure  
Sea Level Pressure 30.09 in    
Wind  
Wind Speed 9 mph (North)    
Max Wind Speed 16 mph    
Max Gust Speed -    
Visibility 10 miles    
Events      
Averages and records for this station are not official NWS values.
T = Trace of Precipitation, MM = Missing Value Source: NWS Daily Summary

Daily Weather History Graph

Daily Weather History Graph

Search for Another Location

Airport or City:

Trip Planner

Search our weather history database for the weather conditions in past years. The results will help you decide how hot, cold, wet, or windy it might be!

Date:

Astronomy

Oct. 21, 2014 Rise Set
Actual Time 8:01 AM EDT 6:52 PM EDT
Civil Twilight 7:33 AM EDT 7:21 PM EDT
Nautical Twilight 7:01 AM EDT 7:53 PM EDT
Astronomical Twilight 6:29 AM EDT 8:25 PM EDT
Moon 5:44 AM EDT (10/21) 5:47 PM EDT (10/21)
Length of Visible Light 11h 47m
Length of Day
10h 50m
Waning Crescent, 5% of the Moon is Illuminated
Oct 21
Waning Crescent
Oct 23
New
Oct 30
First Quarter
Nov 6
Full
Nov 14
Last Quarter

Hourly Weather History & Observations

Time (EDT) Temp. Windchill Dew Point Humidity Pressure Visibility Wind Dir Wind Speed Gust Speed Precip Events Conditions
12:53 AM 50.0 °F - 43.0 °F 77% 29.95 in 10.0 mi NW 8.1 mph - N/A   Overcast
1:53 AM 48.0 °F - 41.0 °F 77% 29.95 in 10.0 mi NNW 9.2 mph - N/A   Mostly Cloudy
2:53 AM 48.9 °F - 42.1 °F 77% 29.96 in 10.0 mi NW 6.9 mph - N/A   Overcast
3:53 AM 48.9 °F - 42.1 °F 77% 29.96 in 10.0 mi NNW 9.2 mph - N/A   Overcast
4:53 AM 48.0 °F - 42.1 °F 80% 29.97 in 10.0 mi NNW 10.4 mph - N/A   Overcast
5:53 AM 48.0 °F - 41.0 °F 77% 29.99 in 10.0 mi NNW 8.1 mph - N/A   Overcast
6:53 AM 46.9 °F - 39.9 °F 77% 30.01 in 10.0 mi NNW 8.1 mph - N/A   Overcast
7:53 AM 46.0 °F 40.6 °F 41.0 °F 83% 30.03 in 10.0 mi NNW 11.5 mph - N/A   Overcast
8:53 AM 46.9 °F - 41.0 °F 80% 30.05 in 10.0 mi NNW 10.4 mph - 0.00 in   Overcast
9:14 AM 46.9 °F - 42.1 °F 83% 30.05 in 10.0 mi NNW 9.2 mph - N/A   Overcast
9:40 AM 48.0 °F - 42.1 °F 80% 30.06 in 10.0 mi North 8.1 mph - N/A   Overcast
9:53 AM 48.0 °F - 42.1 °F 80% 30.07 in 10.0 mi North 10.4 mph - N/A   Overcast
10:53 AM 48.9 °F - 43.0 °F 80% 30.09 in 10.0 mi North 10.4 mph - N/A   Overcast
11:53 AM 50.0 °F - 43.0 °F 77% 30.10 in 10.0 mi North 10.4 mph - N/A   Overcast
12:53 PM 51.1 °F - 43.0 °F 74% 30.11 in 10.0 mi North 11.5 mph - N/A   Overcast
1:14 PM 52.0 °F - 43.0 °F 71% 30.10 in 10.0 mi North 9.2 mph - N/A   Overcast
1:53 PM 50.0 °F - 43.0 °F 77% 30.12 in 10.0 mi NNE 11.5 mph - 0.00 in   Overcast
2:11 PM 48.9 °F - 43.0 °F 80% 30.11 in 10.0 mi NNE 9.2 mph - N/A   Overcast
2:32 PM 51.1 °F - 44.1 °F 77% 30.11 in 10.0 mi NNE 11.5 mph - N/A   Overcast
2:53 PM 51.1 °F - 43.0 °F 74% 30.11 in 10.0 mi North 12.7 mph - N/A   Overcast
3:17 PM 52.0 °F - 43.0 °F 71% 30.10 in 10.0 mi North 9.2 mph - N/A   Mostly Cloudy
3:34 PM 50.0 °F - 42.1 °F 74% 30.11 in 10.0 mi North 10.4 mph - N/A   Overcast
3:46 PM 51.1 °F - 42.1 °F 71% 30.11 in 10.0 mi North 11.5 mph - N/A   Overcast
3:53 PM 51.1 °F - 41.0 °F 68% 30.13 in 10.0 mi North 16.1 mph - N/A   Overcast
4:53 PM 50.0 °F - 41.0 °F 71% 30.15 in 10.0 mi NNE 12.7 mph - N/A   Overcast
5:53 PM 48.9 °F - 39.0 °F 69% 30.16 in 10.0 mi North 11.5 mph - N/A   Overcast
6:53 PM 48.0 °F - 37.9 °F 68% 30.18 in 10.0 mi NNE 8.1 mph - N/A   Overcast
7:53 PM 48.0 °F - 37.9 °F 68% 30.20 in 10.0 mi NE 6.9 mph - N/A   Overcast
8:53 PM 46.9 °F - 37.9 °F 71% 30.22 in 10.0 mi North 6.9 mph - N/A   Overcast
9:53 PM 43.0 °F 40.3 °F 37.0 °F 80% 30.24 in 10.0 mi North 4.6 mph - N/A   Clear
10:53 PM 42.1 °F 40.2 °F 37.0 °F 82% 30.25 in 10.0 mi NNE 3.5 mph - N/A   Clear
11:53 PM 37.9 °F - 36.0 °F 93% 30.26 in 10.0 mi Calm Calm - N/A   Clear